TimeCST,TemperatureF,Dew PointF,Humidity,Sea Level PressureIn,VisibilityMPH,Wind Direction,Wind SpeedMPH,Gust SpeedMPH,PrecipitationIn,Events,Conditions,WindDirDegrees,DateUTC
12:15 AM,31.1,26.2,82,30.07,10.0,North,17.3,24.2,N/A,,Overcast,360,2012-11-12 06:15:00
12:35 AM,30.2,24.8,80,30.06,10.0,North,20.7,25.3,N/A,,Overcast,360,2012-11-12 06:35:00
12:55 AM,29.5,24.3,81,30.06,10.0,North,18.4,27.6,N/A,,Overcast,360,2012-11-12 06:55:00
1:15 AM,29.3,24.6,83,30.08,10.0,North,17.3,23.0,N/A,,Overcast,360,2012-11-12 07:15:00
1:35 AM,28.8,23.7,81,30.09,10.0,North,19.6,24.2,N/A,,Overcast,360,2012-11-12 07:35:00
1:55 AM,27.5,22.1,80,30.09,10.0,North,19.6,28.8,N/A,,Scattered Clouds,360,2012-11-12 07:55:00
2:15 AM,27.1,21.9,81,30.10,10.0,North,20.7,25.3,N/A,,Scattered Clouds,360,2012-11-12 08:15:00
2:35 AM,26.6,20.3,77,30.11,10.0,North,19.6,28.8,N/A,,Scattered Clouds,360,2012-11-12 08:35:00
2:55 AM,26.2,20.8,80,30.12,10.0,North,15.0,18.4,N/A,,Clear,360,2012-11-12 08:55:00
3:15 AM,26.1,21.2,82,30.13,10.0,North,12.7,17.3,N/A,,Clear,360,2012-11-12 09:15:00
3:35 AM,25.7,20.5,81,30.13,10.0,North,17.3,21.9,N/A,,Clear,360,2012-11-12 09:35:00
3:55 AM,25.5,19.8,79,30.12,10.0,North,19.6,24.2,N/A,,Clear,360,2012-11-12 09:55:00
4:15 AM,24.8,19.2,79,30.12,10.0,North,17.3,23.0,N/A,,Clear,360,2012-11-12 10:15:00
4:35 AM,24.6,19.0,79,30.14,10.0,North,11.5,-,N/A,,Clear,360,2012-11-12 10:35:00
4:55 AM,24.3,19.9,84,30.15,10.0,NNE,10.4,-,N/A,,Clear,30,2012-11-12 10:55:00
5:15 AM,23.9,19.4,83,30.15,10.0,North,16.1,-,N/A,,Clear,360,2012-11-12 11:15:00
5:35 AM,23.7,18.5,80,30.16,10.0,North,15.0,-,N/A,,Clear,360,2012-11-12 11:35:00
5:55 AM,23.5,18.1,80,30.16,10.0,North,12.7,-,N/A,,Clear,360,2012-11-12 11:55:00
6:15 AM,23.4,17.6,79,30.17,10.0,North,10.4,-,N/A,,Clear,360,2012-11-12 12:15:00
6:35 AM,23.0,17.6,80,30.17,10.0,North,10.4,-,N/A,,Clear,10,2012-11-12 12:35:00
6:55 AM,23.5,17.6,78,30.18,10.0,South,10.4,-,N/A,,Clear,170,2012-11-12 12:55:00
7:15 AM,23.9,18.1,79,30.19,10.0,South,9.2,-,N/A,,Clear,170,2012-11-12 13:15:00
7:35 AM,25.0,18.7,77,30.20,10.0,South,10.4,-,N/A,,Clear,170,2012-11-12 13:35:00
7:55 AM,25.7,19.4,77,30.21,10.0,South,9.2,-,N/A,,Clear,170,2012-11-12 13:55:00
8:15 AM,26.6,20.1,77,30.21,10.0,South,11.5,17.3,N/A,,Clear,170,2012-11-12 14:15:00
8:35 AM,27.3,20.1,74,30.22,10.0,North,12.7,-,N/A,,Clear,360,2012-11-12 14:35:00
8:55 AM,27.9,19.9,72,30.21,10.0,North,18.4,23.0,N/A,,Clear,360,2012-11-12 14:55:00
9:15 AM,28.4,20.3,72,30.22,10.0,NNE,17.3,20.7,N/A,,Clear,30,2012-11-12 15:15:00
9:35 AM,29.3,21.2,72,30.22,10.0,South,17.3,21.9,N/A,,Clear,170,2012-11-12 15:35:00
9:55 AM,29.7,21.0,70,30.22,10.0,North,18.4,21.9,N/A,,Clear,360,2012-11-12 15:55:00
10:15 AM,30.2,21.4,70,30.22,10.0,North,13.8,21.9,N/A,,Clear,360,2012-11-12 16:15:00
10:35 AM,31.1,21.9,69,30.22,10.0,North,15.0,20.7,N/A,,Clear,360,2012-11-12 16:35:00
10:55 AM,31.6,21.2,65,30.22,10.0,North,18.4,21.9,N/A,,Clear,360,2012-11-12 16:55:00
11:15 AM,32.0,21.4,65,30.22,10.0,North,15.0,21.9,N/A,,Scattered Clouds,360,2012-11-12 17:15:00
11:35 AM,32.4,22.1,66,30.21,10.0,North,11.5,21.9,N/A,,Scattered Clouds,360,2012-11-12 17:35:00
11:55 AM,33.4,22.1,63,30.20,10.0,North,15.0,21.9,N/A,,Clear,360,2012-11-12 17:55:00
12:15 PM,34.3,22.5,62,30.20,10.0,North,15.0,20.7,N/A,,Clear,360,2012-11-12 18:15:00
12:35 PM,35.6,22.1,58,30.20,10.0,North,19.6,26.5,N/A,,Scattered Clouds,360,2012-11-12 18:35:00
12:55 PM,35.4,21.7,58,30.19,10.0,North,16.1,25.3,N/A,,Scattered Clouds,360,2012-11-12 18:55:00
1:15 PM,36.5,22.1,56,30.19,10.0,North,17.3,26.5,N/A,,Scattered Clouds,360,2012-11-12 19:15:00
1:35 PM,36.1,22.1,57,30.19,10.0,North,15.0,27.6,N/A,,Mostly Cloudy,360,2012-11-12 19:35:00
1:55 PM,37.0,22.6,56,30.19,10.0,North,21.9,28.8,N/A,,Mostly Cloudy,360,2012-11-12 19:55:00
2:15 PM,35.6,22.3,58,30.20,10.0,North,18.4,26.5,N/A,,Mostly Cloudy,360,2012-11-12 20:15:00
2:35 PM,36.1,22.5,58,30.20,10.0,North,19.6,25.3,N/A,,Overcast,360,2012-11-12 20:35:00
2:55 PM,37.2,23.2,57,30.21,10.0,North,20.7,26.5,N/A,,Overcast,360,2012-11-12 20:55:00
3:15 PM,35.8,23.9,62,30.22,10.0,North,15.0,23.0,N/A,,Mostly Cloudy,360,2012-11-12 21:15:00
3:35 PM,35.6,23.2,61,30.23,10.0,North,18.4,23.0,N/A,,Overcast,360,2012-11-12 21:35:00
3:55 PM,34.9,23.9,64,30.24,10.0,North,16.1,20.7,N/A,,Mostly Cloudy,360,2012-11-12 21:55:00
4:15 PM,34.9,23.0,62,30.24,10.0,North,15.0,21.9,N/A,,Mostly Cloudy,360,2012-11-12 22:15:00
4:35 PM,34.7,23.7,64,30.25,10.0,North,11.5,-,N/A,,Overcast,360,2012-11-12 22:35:00
4:55 PM,33.8,24.1,68,30.26,10.0,North,9.2,-,N/A,,Overcast,360,2012-11-12 22:55:00
5:15 PM,33.1,24.1,70,30.27,10.0,North,6.9,-,N/A,,Mostly Cloudy,360,2012-11-12 23:15:00
5:35 PM,32.5,24.1,71,30.27,10.0,North,8.1,-,N/A,,Scattered Clouds,360,2012-11-12 23:35:00
5:55 PM,32.4,23.7,70,30.28,10.0,North,8.1,-,N/A,,Clear,360,2012-11-12 23:55:00
6:15 PM,31.8,24.4,74,30.30,10.0,North,6.9,-,N/A,,Clear,360,2012-11-13 00:15:00
6:35 PM,31.6,23.9,73,30.30,10.0,North,6.9,-,N/A,,Scattered Clouds,360,2012-11-13 00:35:00
6:55 PM,31.5,23.2,71,30.31,10.0,North,5.8,-,N/A,,Clear,360,2012-11-13 00:55:00
7:15 PM,31.5,23.0,71,30.31,10.0,North,6.9,-,N/A,,Clear,360,2012-11-13 01:15:00
7:35 PM,31.1,23.4,73,30.32,10.0,North,5.8,-,N/A,,Clear,360,2012-11-13 01:35:00
7:55 PM,30.0,23.2,76,30.32,10.0,North,5.8,-,N/A,,Clear,360,2012-11-13 01:55:00
8:15 PM,30.2,23.0,75,30.33,10.0,North,6.9,-,N/A,,Clear,360,2012-11-13 02:15:00
8:35 PM,30.7,23.0,73,30.33,10.0,North,6.9,-,N/A,,Clear,360,2012-11-13 02:35:00
8:55 PM,30.6,22.8,73,30.34,10.0,North,8.1,-,N/A,,Clear,360,2012-11-13 02:55:00
9:15 PM,29.5,23.0,77,30.35,10.0,North,6.9,-,N/A,,Clear,360,2012-11-13 03:15:00
9:35 PM,30.0,23.0,75,30.36,10.0,North,9.2,-,N/A,,Clear,360,2012-11-13 03:35:00
9:55 PM,30.2,23.0,75,30.36,10.0,North,6.9,-,N/A,,Clear,360,2012-11-13 03:55:00
10:15 PM,29.8,22.6,75,30.37,10.0,North,5.8,-,N/A,,Clear,360,2012-11-13 04:15:00
10:35 PM,29.3,22.5,76,30.37,10.0,North,8.1,-,N/A,,Clear,360,2012-11-13 04:35:00
10:55 PM,28.9,22.1,76,30.38,10.0,North,6.9,-,N/A,,Clear,360,2012-11-13 04:55:00
11:15 PM,27.5,21.9,80,30.38,10.0,North,6.9,-,N/A,,Clear,360,2012-11-13 05:15:00
11:35 PM,27.5,21.6,78,30.38,10.0,North,4.6,-,N/A,,Clear,360,2012-11-13 05:35:00
11:55 PM,26.6,21.2,80,30.39,10.0,North,4.6,-,N/A,,Clear,360,2012-11-13 05:55:00